Wind_Speed
20 19 19 20 20 20 20 21 21 21 22 21 22 23 24 25 25 25 26 27 26 26 25 25 24 25 25 24 24 24 24 24 25 25 26 26 25 25 25 26 26 26 25
21 20 19 19 20 21 21 22 23 23 23 23 24 24 25 25 25 24 25 26 26 26 26 26 25 26 26 26 25 25 25 25 25 26 26 27 27 27 27 26 26 26 26
22 21 20 20 21 21 22 23 24 24 24 24 24 25 25 25 24 24 24 25 25 26 25 26 26 27 27 27 26 26 26 26 26 27 27 28 28 28 27 27 26 27 27
22 21 20 20 21 22 22 23 24 24 24 24 24 25 24 24 24 24 24 24 25 26 26 26 26 26 27 27 26 26 26 26 26 27 27 28 28 28 28 28 27 27 27
21 21 21 21 21 22 23 23 23 23 24 24 25 24 24 24 24 24 24 24 24 25 26 26 26 26 27 28 28 28 28 28 28 27 27 27 27 28 28 29 28 28 28
21 21 21 21 22 23 23 23 23 22 23 23 24 24 24 25 25 24 24 24 24 25 26 26 27 27 28 29 29 29 29 29 29 29 29 29 29 29 29 29 29 29 29
21 21 21 22 22 23 22 23 23 23 23 23 23 23 23 24 24 24 25 25 25 26 27 26 28 28 28 28 29 30 30 30 30 30 30 30 30 31 30 31 31 31 30
22 22 22 22 22 22 23 23 23 24 23 23 23 23 22 22 23 24 25 26 26 27 27 27 28 28 28 27 28 30 30 30 30 30 31 31 31 31 30 31 32 32 32
22 22 22 21 21 22 22 23 23 23 23 23 24 24 23 23 23 24 25 26 26 27 27 27 28 28 28 28 28 29 30 30 30 31 31 31 32 32 31 31 32 33 33
20 20 20 20 21 21 22 23 23 24 24 24 24 23 24 24 25 25 24 25 26 27 27 28 28 29 29 29 29 29 30 31 31 31 31 32 33 33 32 32 32 33 33
19 19 20 20 21 22 22 23 22 22 22 23 23 23 24 25 25 26 25 25 26 27 27 28 28 28 28 29 30 30 31 32 33 33 33 33 33 33 33 33 33 34 33
19 19 19 20 21 22 22 22 22 22 22 23 24 23 23 24 24 26 26 26 26 26 26 27 27 28 28 29 29 29 30 31 32 33 34 34 34 34 34 34 34 35 34
19 19 19 20 21 21 21 22 22 23 22 23 23 23 24 24 24 25 26 25 25 25 26 26 27 28 28 28 29 29 30 31 32 33 34 34 34 35 35 35 35 35 36
19 19 19 20 21 21 22 21 22 22 22 22 23 24 24 25 25 26 26 26 26 25 25 25 26 26 27 27 28 29 29 31 32 33 33 34 34 34 35 35 35 35 36
18 18 19 20 20 21 21 21 22 22 22 22 22 23 24 25 25 26 27 27 26 26 25 24 25 26 27 27 27 28 29 29 29 31 33 33 34 34 34 34 34 34 35
18 19 19 20 20 21 21 21 22 22 22 22 23 23 24 25 26 26 27 26 26 26 25 25 26 26 26 26 26 27 28 28 28 30 31 32 33 33 34 34 34 34 35
19 19 19 19 20 20 20 21 21 22 22 23 23 23 24 25 25 25 25 24 24 25 24 23 24 25 26 25 25 26 27 27 27 29 30 30 31 32 34 35 35 35 36
19 19 19 19 19 19 20 20 21 21 22 22 23 23 23 23 23 24 24 23 23 24 23 23 23 24 24 25 25 25 26 27 27 28 29 30 31 32 33 34 34 34 35
20 20 20 19 19 20 20 20 20 21 22 23 23 23 23 23 23 24 23 23 23 22 22 22 23 22 23 23 23 24 24 25 27 27 28 29 29 30 31 32 34 34 35
20 20 19 19 19 20 20 21 21 22 23 23 23 23 24 24 23 23 22 21 21 21 21 21 21 21 22 22 23 23 24 25 26 26 27 28 28 29 30 30 32 34 35
20 20 19 19 19 20 20 21 22 22 23 23 23 23 23 23 22 22 21 20 20 20 20 20 20 21 21 22 23 23 24 24 24 26 27 28 28 28 28 29 30 32 34
19 19 19 19 20 20 21 22 22 22 22 23 23 23 22 22 21 21 20 20 19 18 19 19 20 20 20 21 22 23 23 24 23 24 26 26 26 26 27 29 30 31 33
19 19 20 20 20 20 21 21 21 21 21 21 21 21 21 21 21 20 19 19 18 18 18 19 19 19 20 20 21 22 22 22 23 24 25 24 25 26 27 27 29 30 31
19 20 20 20 20 20 20 20 19 19 19 20 20 20 20 21 20 19 18 18 18 17 18 18 19 19 19 19 20 20 20 21 21 22 24 24 25 25 25 26 27 28 30
20 20 20 20 20 19 18 18 18 19 19 20 21 20 20 20 20 19 18 18 17 17 17 17 17 17 17 17 18 18 18 19 19 20 21 22 23 25 26 26 27 27 26
20 20 20 20 19 18 18 18 18 19 20 21 21 21 21 21 20 19 18 18 17 17 17 17 17 17 17 16 17 17 17 18 18 19 20 20 21 22 23 23 25 26 26
Wind_Direction
285 285 287 288 288 288 287 286 284 282 282 282 281 280 281 278 276 273 270 269 266 264 263 263 260 260 259 260 259 258 257 256 254 253 253 254 253 252 252 252 252 251 251
284 285 287 287 287 288 286 285 285 285 284 283 283 282 282 281 277 274 272 268 267 265 263 262 261 260 260 260 260 258 257 256 254 253 253 254 254 254 254 253 253 252 251
284 284 285 287 288 288 287 286 287 286 284 284 284 285 283 279 277 277 275 270 268 265 263 263 262 262 260 258 259 257 256 256 256 255 254 253 254 254 254 254 253 250 250
285 285 286 288 289 290 289 288 287 287 286 286 285 284 282 279 278 279 279 275 270 267 265 265 264 262 260 259 258 258 256 255 255 254 254 254 254 253 253 253 252 250 249
284 285 285 286 289 291 291 291 290 290 289 289 287 285 282 280 279 278 277 275 272 269 267 266 265 263 261 259 258 258 257 255 254 253 253 253 254 253 253 251 251 250 248
285 285 285 288 292 293 293 293 290 291 291 292 290 287 284 281 279 277 277 275 274 272 269 267 266 264 263 261 259 259 257 256 255 253 253 253 254 254 255 251 250 250 250
285 286 288 291 293 295 294 293 291 292 292 293 291 288 286 284 280 277 276 275 275 273 272 271 269 265 264 262 260 258 257 256 257 257 256 255 254 254 256 253 250 250 250
288 288 292 295 294 295 294 294 294 296 295 293 291 290 288 286 283 281 277 275 273 273 272 272 271 268 264 261 259 258 257 257 258 258 258 255 253 253 256 254 252 251 252
290 291 295 295 297 295 295 296 295 295 295 293 292 292 290 287 286 283 280 277 274 273 273 272 270 268 266 264 262 259 258 258 258 257 257 255 254 254 255 255 253 251 252
291 291 294 293 295 297 298 299 298 297 295 293 292 293 291 289 287 285 282 280 277 274 274 272 271 268 267 265 263 262 260 259 259 257 256 256 255 255 256 256 254 253 252
294 294 294 293 296 300 300 301 301 301 298 294 292 293 292 291 288 287 285 284 280 277 273 271 270 268 268 266 265 264 262 261 259 258 257 257 255 255 256 256 254 253 252
297 297 296 297 299 300 300 301 301 302 299 295 294 294 294 294 292 290 289 287 285 282 276 271 269 268 269 267 265 264 264 261 259 258 257 256 255 256 255 255 254 253 252
297 297 297 298 300 301 302 303 302 303 301 299 298 296 295 295 294 293 291 289 288 285 279 272 269 269 269 268 266 266 264 263 260 260 259 257 256 255 255 254 254 253 251
301 302 302 303 304 305 304 304 306 307 306 304 301 297 294 293 295 295 295 291 289 285 281 274 271 270 269 271 270 267 266 264 261 259 260 259 257 256 256 254 253 252 251
305 304 304 305 305 306 306 304 307 308 308 307 305 301 298 296 297 295 294 292 288 285 282 275 272 271 270 273 274 270 266 265 261 258 259 260 259 257 255 252 251 251 250
309 307 306 307 306 305 305 306 307 309 310 310 308 305 302 299 298 298 296 293 289 287 285 279 273 271 273 273 271 269 267 264 263 261 261 261 260 257 254 252 252 251 250
309 307 306 306 305 305 305 307 309 310 313 314 312 308 306 303 299 298 296 294 289 286 284 281 276 275 276 274 271 269 266 264 265 262 261 261 260 257 254 253 253 252 250
309 308 306 306 305 306 308 310 311 313 315 315 314 312 310 307 303 301 298 296 292 288 285 284 282 279 276 273 270 268 267 265 264 263 262 263 261 259 256 253 252 250 248
310 308 308 307 307 308 310 312 312 314 315 315 314 313 311 310 306 303 299 296 294 289 287 287 283 280 277 273 268 269 269 266 265 265 266 265 262 259 258 255 252 250 249
312 311 308 309 308 309 311 312 313 313 315 315 315 314 313 314 310 305 302 298 295 292 289 287 283 281 278 274 271 271 270 267 266 267 268 267 263 260 259 256 253 251 249
312 314 313 311 309 311 313 314 314 315 316 316 316 317 315 315 315 312 307 302 299 296 292 289 288 286 282 278 275 273 271 267 267 267 267 267 264 261 260 257 255 252 249
315 315 314 312 311 312 314 315 316 317 318 318 318 318 318 318 316 314 312 307 303 301 298 294 293 292 288 284 280 279 275 269 267 267 266 266 263 261 260 258 256 255 252
319 319 317 315 314 314 315 316 317 319 320 321 320 319 321 322 320 317 315 312 308 305 305 303 300 297 293 288 285 282 279 276 273 270 267 266 263 261 260 259 258 256 254
323 323 321 320 318 316 317 319 321 323 324 326 326 323 324 323 323 321 319 316 312 309 309 308 305 302 298 293 289 287 283 281 278 275 273 270 268 265 262 260 258 257 256
322 323 322 321 320 320 321 322 322 323 325 327 328 326 323 323 322 322 322 321 317 315 313 311 309 307 304 300 298 294 290 287 281 280 277 275 271 267 265 264 262 257 253
324 323 322 322 321 322 321 321 322 323 325 326 326 325 324 323 322 321 321 322 320 320 318 314 312 310 307 305 303 301 298 294 290 287 284 281 277 273 268 265 262 260 255
Height
5833 5832 5831 5831 5830 5830 5829 5828 5828 5827 5826 5825 5824 5823 5823 5823 5823 5822 5822 5822 5823 5823 5823 5824 5825 5826 5827 5828 5829 5830 5831 5833 5834 5836 5838 5839 5841 5843 5845 5847 5849 5851 5853
5828 5827 5827 5826 5825 5824 5824 5823 5822 5821 5820 5819 5818 5818 5817 5816 5816 5816 5815 5815 5816 5817 5817 5817 5818 5819 5820 5822 5822 5824 5825 5827 5828 5830 5831 5833 5835 5837 5839 5841 5843 5845 5847
5822 5822 5821 5821 5820 5819 5818 5817 5816 5815 5814 5813 5812 5811 5810 5810 5810 5809 5809 5808 5809 5810 5811 5811 5812 5813 5814 5815 5816 5818 5819 5821 5822 5824 5825 5827 5829 5831 5832 5835 5837 5839 5841
5817 5817 5816 5815 5814 5813 5812 5811 5810 5808 5807 5806 5806 5805 5804 5803 5803 5803 5803 5802 5802 5803 5804 5804 5805 5806 5807 5808 5810 5811 5812 5814 5815 5817 5819 5821 5823 5825 5826 5828 5831 5833 5835
5812 5811 5811 5810 5809 5808 5807 5805 5804 5802 5801 5800 5799 5798 5798 5797 5797 5796 5796 5796 5796 5796 5797 5798 5798 5799 5800 5801 5802 5804 5805 5807 5808 5810 5812 5814 5816 5818 5820 5822 5825 5827 5829
5806 5806 5806 5805 5804 5803 5801 5800 5798 5796 5795 5794 5792 5792 5791 5791 5790 5790 5790 5789 5789 5789 5790 5790 5791 5792 5793 5794 5795 5796 5798 5800 5801 5803 5805 5807 5809 5811 5813 5815 5818 5820 5823
5801 5801 5800 5799 5798 5797 5795 5794 5792 5791 5789 5788 5786 5786 5785 5784 5783 5783 5783 5782 5782 5782 5782 5783 5784 5784 5785 5786 5787 5789 5791 5792 5794 5796 5798 5800 5802 5804 5806 5808 5811 5814 5816
5796 5795 5794 5793 5792 5791 5789 5788 5786 5785 5783 5781 5780 5779 5779 5779 5777 5776 5776 5775 5775 5775 5775 5775 5776 5776 5777 5778 5780 5781 5783 5785 5786 5788 5790 5792 5794 5797 5799 5801 5803 5806 5809
5791 5790 5789 5788 5787 5785 5784 5782 5780 5779 5777 5776 5774 5773 5772 5771 5771 5770 5768 5768 5767 5767 5767 5767 5768 5769 5770 5771 5772 5773 5775 5776 5778 5780 5782 5784 5786 5789 5791 5793 5796 5798 5801
5786 5785 5784 5783 5781 5780 5778 5777 5775 5773 5771 5770 5768 5766 5765 5764 5763 5763 5762 5761 5760 5759 5759 5759 5760 5761 5762 5763 5764 5765 5767 5769 5770 5772 5774 5776 5778 5781 5783 5785 5788 5790 5792
5782 5780 5779 5778 5776 5775 5773 5772 5770 5767 5765 5764 5762 5760 5759 5757 5756 5755 5755 5754 5752 5752 5752 5752 5752 5753 5754 5755 5756 5757 5759 5760 5762 5763 5765 5767 5770 5772 5774 5777 5779 5781 5784
5777 5776 5774 5773 5772 5770 5768 5767 5765 5762 5760 5758 5756 5753 5752 5751 5750 5748 5747 5746 5745 5744 5744 5744 5745 5746 5746 5747 5748 5749 5750 5751 5753 5754 5756 5759 5761 5763 5765 5767 5770 5772 5774
5773 5771 5770 5768 5767 5765 5764 5762 5760 5757 5755 5753 5750 5747 5746 5745 5743 5741 5740 5739 5738 5737 5736 5736 5737 5737 5738 5739 5740 5741 5742 5743 5744 5746 5747 5749 5751 5753 5755 5757 5760 5762 5765
5768 5767 5766 5764 5762 5761 5759 5757 5755 5752 5749 5747 5744 5742 5740 5738 5736 5734 5732 5731 5730 5730 5729 5729 5729 5729 5731 5731 5732 5732 5733 5734 5735 5737 5738 5739 5741 5743 5745 5747 5749 5752 5754
5764 5763 5762 5760 5758 5756 5754 5752 5750 5747 5744 5741 5739 5736 5734 5732 5729 5727 5725 5724 5723 5722 5722 5722 5722 5722 5722 5722 5723 5724 5725 5725 5726 5728 5729 5730 5732 5733 5735 5738 5740 5742 5745
5761 5759 5758 5756 5754 5752 5750 5747 5745 5742 5739 5736 5734 5731 5728 5725 5723 5720 5718 5716 5714 5714 5714 5714 5714 5714 5714 5714 5715 5715 5716 5716 5717 5718 5719 5720 5722 5724 5726 5728 5730 5733 5735
5758 5756 5754 5752 5750 5747 5745 5743 5740 5737 5734 5731 5728 5725 5722 5718 5716 5713 5711 5709 5707 5706 5706 5706 5706 5706 5706 5706 5706 5707 5707 5708 5708 5709 5710 5711 5712 5714 5716 5718 5720 5723 5725
5754 5752 5750 5748 5745 5743 5740 5738 5735 5732 5729 5726 5723 5719 5716 5713 5709 5707 5704 5702 5701 5699 5699 5699 5699 5698 5698 5698 5698 5698 5699 5699 5700 5701 5701 5702 5703 5704 5706 5708 5710 5712 5715
5750 5748 5746 5743 5741 5738 5736 5733 5730 5727 5724 5721 5717 5714 5711 5707 5704 5701 5698 5696 5694 5693 5692 5691 5691 5691 5691 5690 5690 5690 5690 5691 5692 5692 5692 5693 5693 5695 5696 5698 5700 5702 5705
5746 5744 5741 5739 5737 5734 5731 5728 5725 5722 5719 5716 5712 5709 5705 5702 5698 5695 5692 5690 5688 5687 5686 5685 5685 5684 5684 5684 5683 5683 5683 5683 5683 5684 5684 5684 5684 5685 5687 5688 5690 5692 5695
5742 5740 5737 5735 5732 5729 5727 5723 5720 5717 5714 5710 5707 5703 5700 5696 5693 5689 5687 5684 5683 5681 5680 5679 5678 5678 5677 5676 5676 5675 5675 5675 5675 5675 5675 5676 5676 5677 5677 5678 5680 5682 5684
5739 5736 5733 5730 5728 5725 5722 5718 5715 5712 5709 5705 5701 5698 5694 5691 5688 5685 5682 5679 5678 5676 5675 5673 5672 5671 5670 5669 5668 5667 5667 5667 5667 5668 5667 5667 5667 5667 5668 5669 5671 5672 5674
5735 5732 5729 5726 5723 5720 5717 5714 5711 5708 5704 5701 5697 5694 5690 5687 5683 5680 5678 5675 5673 5671 5670 5668 5666 5665 5663 5662 5661 5660 5659 5659 5659 5658 5658 5658 5658 5659 5660 5661 5662 5663 5665
5731 5728 5725 5722 5719 5716 5713 5710 5707 5704 5701 5698 5694 5690 5687 5683 5680 5676 5674 5671 5669 5667 5665 5662 5661 5659 5657 5655 5654 5653 5652 5651 5651 5650 5649 5650 5650 5650 5651 5652 5652 5654 5655
5728 5725 5722 5719 5715 5712 5709 5707 5704 5701 5698 5694 5690 5687 5683 5680 5676 5673 5670 5667 5665 5662 5660 5657 5655 5653 5651 5650 5648 5646 5645 5644 5644 5643 5642 5641 5642 5642 5642 5642 5643 5644 5645
5724 5721 5718 5715 5712 5709 5706 5703 5700 5697 5694 5691 5687 5683 5679 5676 5672 5669 5666 5663 5661 5658 5655 5652 5650 5648 5646 5644 5642 5641 5639 5638 5637 5637 5636 5634 5634 5634 5634 5634 5634 5635 5636